Hutchinson, KS

7:10 PM CDT on September 29, 2016 (GMT -0500)
Hutchinson Municipal

Weather History for KHUT - December, 2013

Change the Weather History Date:

Tuesday, December 3, 2013

  Actual Average Record
Temperature  
Mean Temperature 46 °F -  
Max Temperature 64 °F 46 °F 69 °F (2001)
Min Temperature 28 °F 24 °F 7 °F (2006)
Degree Days  
Heating Degree Days 19    
Moisture  
Dew Point 33 °F    
Average Humidity 76    
Maximum Humidity 93    
Minimum Humidity 38    
Precipitation  
Precipitation 0.00 in - - ()
Sea Level Pressure  
Sea Level Pressure 29.54 in    
Wind  
Wind Speed 3 mph (ESE)    
Max Wind Speed 15 mph    
Max Gust Speed 23 mph    
Visibility 6 miles    
Events      
Averages and records for this station are not official NWS values.
T = Trace of Precipitation, MM = Missing Value Source: NWS Daily Summary

Daily Weather History Graph

Daily Weather History Graph

Search for Another Location

Airport or City:

Trip Planner

Search our weather history database for the weather conditions in past years. The results will help you decide how hot, cold, wet, or windy it might be!

Date:

Astronomy

Dec. 03, 2013 Rise Set
Actual Time 7:30 AM CST 5:11 PM CST
Civil Twilight 7:01 AM CST 5:40 PM CST
Nautical Twilight 6:29 AM CST 6:13 PM CST
Astronomical Twilight 5:57 AM CST 6:45 PM CST
Moon 8:01 AM CST (12/3) 6:16 PM CST (12/3)
Length of Visible Light 10h 39m
Length of Day
9h 40m
New Moon, 1% of the Moon is Illuminated
Dec 3
New Moon
Dec 9
First Quarter
Dec 17
Full
Dec 25
Last Quarter
Jan 1
New

Hourly Weather History & Observations

Time (CST) Temp. Windchill Dew Point Humidity Pressure Visibility Wind Dir Wind Speed Gust Speed Precip Events Conditions
12:52 AM 37.0 °F - 33.1 °F 86% 29.56 in 7.0 mi Calm Calm - N/A   Clear
1:52 AM 33.1 °F - 30.0 °F 89% 29.55 in 7.0 mi Calm Calm - N/A   Clear
2:52 AM 33.1 °F - 28.9 °F 85% 29.53 in 4.0 mi Calm Calm - N/A   Clear
3:05 AM 30.2 °F - 28.4 °F 93% 29.55 in 2.5 mi Calm Calm - N/A   Clear
3:14 AM 33.8 °F - 30.2 °F 87% 29.55 in 4.0 mi Calm Calm - N/A   Clear
3:52 AM 30.0 °F - 27.0 °F 88% 29.54 in 3.0 mi Calm Calm - N/A   Clear
4:02 AM 32.0 °F - 28.4 °F 87% 29.56 in 2.5 mi Calm Calm - N/A   Clear
4:09 AM 32.0 °F - 28.4 °F 87% 29.56 in 3.0 mi Calm Calm - N/A   Clear
4:52 AM 33.1 °F 28.7 °F 28.9 °F 85% 29.55 in 3.0 mi NW 4.6 mph - N/A   Clear
5:52 AM 30.9 °F - 28.9 °F 92% 29.55 in 4.0 mi Calm Calm - N/A   Clear
6:06 AM 30.2 °F - 28.4 °F 93% 29.55 in 2.5 mi Calm Calm - N/A   Clear
6:38 AM 28.4 °F 22.2 °F 26.6 °F 93% 29.56 in 1.5 mi SSE 5.8 mph - N/A   Clear
6:45 AM 28.4 °F 23.3 °F 26.6 °F 93% 29.56 in 3.0 mi SE 4.6 mph - N/A   Clear
6:52 AM 30.0 °F 26.5 °F 27.0 °F 88% 29.55 in 7.0 mi SE 3.5 mph - N/A   Clear
7:52 AM 30.9 °F 27.5 °F 28.9 °F 92% 29.56 in 7.0 mi ESE 3.5 mph - N/A   Clear
8:52 AM 41.0 °F 39.0 °F 36.0 °F 82% 29.54 in 7.0 mi SE 3.5 mph - N/A   Clear
9:52 AM 46.0 °F 44.8 °F 37.0 °F 71% 29.57 in 7.0 mi SSE 3.5 mph - N/A   Clear
10:52 AM 53.1 °F - 39.0 °F 59% 29.55 in 8.0 mi SSE 8.1 mph - N/A   Clear
11:52 AM 57.0 °F - 39.9 °F 53% 29.51 in 9.0 mi SE 6.9 mph - N/A   Clear
12:52 PM 61.0 °F - 39.0 °F 44% 29.49 in 10.0 mi SSE 8.1 mph - N/A   Clear
1:52 PM 64.0 °F - 37.9 °F 38% 29.47 in 10.0 mi SSE 9.2 mph - N/A   Clear
2:52 PM 63.0 °F - 37.0 °F 38% 29.45 in 10.0 mi SSE 12.7 mph - N/A   Clear
3:52 PM 61.0 °F - 37.9 °F 42% 29.46 in 10.0 mi SSE 10.4 mph - N/A   Clear
4:52 PM 54.0 °F - 39.0 °F 57% 29.49 in 10.0 mi South 8.1 mph - N/A   Clear
5:52 PM 46.0 °F 43.1 °F 37.9 °F 73% 29.52 in 10.0 mi SSW 5.8 mph - N/A   Clear
6:52 PM 42.1 °F - 37.0 °F 82% 29.53 in 9.0 mi Calm Calm - N/A   Clear
7:52 PM 41.0 °F - 37.9 °F 89% 29.53 in 8.0 mi Calm Calm - N/A   Clear
8:52 PM 44.1 °F 40.8 °F 39.9 °F 85% 29.54 in 8.0 mi East 5.8 mph - N/A   Clear
9:52 PM 43.0 °F 38.2 °F 35.1 °F 74% 29.55 in 10.0 mi NNE 8.1 mph - N/A   Clear
10:52 PM 42.1 °F 35.7 °F 33.1 °F 70% 29.55 in 8.0 mi NNE 11.5 mph - N/A   Clear
10:59 PM 42.8 °F 36.2 °F 33.8 °F 70% 29.57 in 8.0 mi NNE 12.7 mph - N/A   Mostly Cloudy
11:17 PM 39.2 °F 32.0 °F 32.0 °F 75% 29.56 in 7.0 mi NNE 11.5 mph 18.4 mph N/A   Scattered Clouds
11:40 PM 39.2 °F 30.8 °F 32.0 °F 75% 29.55 in 6.0 mi NNE 15.0 mph 21.9 mph N/A   Haze
11:50 PM 39.2 °F 30.8 °F 32.0 °F 75% 29.55 in 6.0 mi NNE 15.0 mph 23.0 mph N/A   Haze
11:52 PM 39.9 °F 32.9 °F 32.0 °F 73% 29.54 in 6.0 mi NNE 11.5 mph 23.0 mph N/A   Haze